CAPE
1 nan nan nan nan nan nan nan nan nan nan nan nan nan nan nan nan nan nan nan nan nan nan nan nan nan nan 10 58 58 93 83 54 54 12 2 1 1 nan nan nan nan nan nan nan nan nan nan nan 2 15 22 18 18 21 47 47 76 125 139 139 66 29 7 7 24 48 145 357 357 584 685 576 576 443 378 394 394 360 317 317 180 127 76 76 53
0 nan nan nan nan nan nan nan nan nan nan nan nan nan 1 nan nan nan nan nan nan nan 1 0 0 nan nan nan 28 28 52 62 35 35 6 2 0 0 nan nan nan nan nan nan nan nan nan nan nan nan 5 15 11 11 16 36 36 74 111 122 122 72 15 6 6 15 27 111 251 251 412 450 388 388 294 262 271 271 234 142 142 92 70 44 44 33
3 2 nan nan nan nan nan nan nan nan nan nan nan nan 20 4 nan nan nan 0 0 nan 8 34 34 18 nan nan 33 33 31 40 29 29 8 1 0 0 nan nan nan nan nan nan nan nan nan nan nan nan nan 8 8 8 8 25 25 47 74 75 75 34 0 nan nan nan 13 73 157 157 250 249 242 242 156 163 128 128 92 40 40 43 37 34 34 24
5 5 1 nan nan nan nan nan nan nan nan nan 6 6 33 25 4 4 0 nan nan nan 22 69 69 62 25 5 18 18 31 37 33 33 17 0 nan nan nan nan nan nan nan nan nan nan nan nan nan nan nan nan 1 1 2 7 7 18 17 13 13 nan nan nan nan nan nan 20 79 79 110 70 75 75 60 42 38 38 15 3 3 27 35 38 38 21
4 4 1 nan nan nan nan nan nan nan nan nan 22 22 51 30 11 11 nan nan nan nan 20 132 132 74 57 27 12 12 32 36 29 29 19 2 nan nan nan nan nan nan nan nan nan nan nan nan nan nan nan nan nan nan nan nan nan nan nan nan nan nan nan nan nan nan nan nan nan nan 1 nan 5 5 3 2 8 8 12 10 10 20 34 34 34 24
5 4 0 nan nan nan nan nan nan nan nan 14 51 51 81 55 17 17 0 nan nan nan 8 88 88 92 58 41 22 22 30 36 25 25 17 5 nan nan nan nan nan nan nan nan nan nan nan nan nan nan nan nan nan nan nan nan nan nan nan nan nan nan nan nan nan nan nan nan nan nan nan nan nan nan nan nan nan nan 4 17 17 23 26 22 22 18
10 1 nan nan nan nan nan nan nan nan 6 40 86 86 89 72 25 25 3 8 8 nan 4 33 33 69 51 14 17 17 25 23 20 20 10 3 0 0 0 nan nan nan nan nan nan nan nan nan nan nan nan nan nan nan nan nan nan nan nan nan nan nan nan nan nan nan nan nan nan nan nan nan nan nan nan nan nan nan nan 2 2 8 10 5 5 5
90 9 nan nan nan nan nan nan nan nan 12 42 94 94 138 103 29 29 10 0 0 nan 3 33 33 30 18 12 nan nan nan 17 18 18 9 5 0 0 0 0 0 nan nan nan nan nan nan nan nan nan nan nan nan nan nan nan nan nan nan nan nan nan nan nan nan nan nan nan nan nan nan nan nan nan nan nan nan nan nan nan nan 0 0 2 2 4
124 92 23 nan nan nan nan nan nan nan 2 55 86 86 103 70 25 25 9 0 0 nan 5 24 24 29 4 1 nan nan nan nan 12 12 29 28 19 19 4 nan nan nan nan nan nan nan nan nan nan nan nan nan nan nan nan nan nan nan nan nan nan nan nan nan nan nan nan nan nan nan nan nan nan nan nan nan nan nan nan nan nan nan nan 1 1 4
75 129 109 38 38 9 1 1 nan nan nan 25 24 24 42 34 18 18 3 0 0 nan 5 15 15 19 7 1 nan nan nan nan nan nan 0 1 8 8 4 nan nan nan nan nan nan nan nan nan nan nan nan nan nan nan nan nan nan nan nan nan nan nan nan nan nan nan nan nan nan nan nan nan nan nan nan nan nan nan nan nan nan nan nan nan nan 1
61 94 137 90 90 20 3 0 nan nan nan 17 21 21 5 7 18 18 3 nan nan nan 1 8 8 13 20 3 nan nan nan nan nan nan nan nan nan nan nan nan nan nan nan nan nan nan nan nan nan nan nan nan nan nan nan nan nan nan nan nan nan nan nan nan nan nan nan nan nan nan nan nan nan nan nan nan nan nan nan nan nan nan nan nan nan nan
122 106 119 101 101 44 10 nan nan nan nan 17 18 18 39 0 10 10 10 nan nan nan nan 1 1 3 1 1 nan nan nan nan nan nan nan nan nan nan 8 9 9 2 nan nan nan nan nan nan nan nan nan nan nan nan nan nan nan nan nan nan nan nan nan nan nan nan nan nan nan nan nan nan nan nan nan nan nan nan nan nan nan nan nan nan nan nan
110 133 128 114 114 67 28 3 nan nan nan 4 1 1 2 3 13 13 22 nan nan nan nan nan nan 0 nan nan nan nan nan nan nan nan nan nan nan nan 5 30 30 35 30 15 15 0 nan nan nan nan nan nan nan nan nan nan nan nan nan nan nan nan nan nan nan nan nan nan nan nan nan nan nan nan nan nan nan nan nan nan nan nan nan nan nan nan
6 8 29 118 118 93 67 39 39 39 15 0 nan nan nan nan 3 3 15 1 1 nan 0 nan nan nan nan nan nan nan nan nan nan nan nan nan nan nan nan 3 3 15 26 37 37 2 nan nan nan nan nan nan nan nan nan nan nan nan nan nan nan nan nan nan nan nan nan nan nan nan nan nan nan nan nan nan nan nan nan nan nan nan nan nan nan nan
3 3 5 9 9 18 10 9 11 11 4 3 5 5 nan nan nan nan 9 5 5 3 3 0 0 nan nan nan nan nan nan nan nan nan nan nan nan nan nan nan nan 0 5 5 5 nan nan nan nan nan nan nan nan nan nan nan nan nan nan nan nan nan nan nan nan nan nan nan nan nan nan nan nan nan nan nan nan nan nan nan nan nan nan nan nan nan
3 2 3 5 5 6 6 5 4 4 5 6 7 7 5 nan nan nan 3 9 9 16 17 9 9 nan nan nan nan nan nan nan nan nan nan nan nan nan nan nan nan nan nan nan nan nan nan nan nan nan nan nan nan nan nan nan nan nan nan nan nan nan nan nan nan nan nan nan nan nan nan nan nan nan nan nan nan nan nan nan nan nan nan nan nan nan
4 3 2 3 3 3 5 8 6 6 5 3 3 3 2 6 2 2 4 9 9 31 38 26 26 4 nan nan nan nan nan nan nan nan nan nan nan nan nan nan nan nan nan nan nan nan nan nan nan nan nan nan nan nan nan nan nan nan nan nan nan nan nan nan nan nan nan nan nan nan nan nan nan nan nan nan nan nan nan nan nan nan nan nan nan nan
2 2 1 3 3 3 8 11 11 11 7 5 2 2 1 3 4 4 5 15 15 35 47 29 29 7 nan nan nan nan nan nan nan nan nan nan nan nan nan nan nan nan nan nan nan nan nan nan nan nan nan nan nan nan nan nan nan nan nan nan nan nan nan nan nan nan nan nan nan nan nan nan nan nan nan nan nan nan nan nan nan nan nan nan nan nan
1 1 1 1 1 3 5 9 9 9 8 7 4 4 1 1 2 2 3 26 26 30 27 20 20 5 nan nan nan nan nan nan nan nan nan nan nan nan nan nan nan nan nan nan nan nan nan nan nan nan nan nan nan nan nan nan nan nan nan nan nan nan nan nan nan nan nan nan nan nan nan nan nan nan nan nan nan nan nan nan nan nan nan nan nan nan
1 0 0 0 0 2 3 6 8 8 10 10 6 6 2 2 2 2 3 33 33 11 0 4 4 1 nan nan nan nan nan nan nan nan nan nan nan nan nan nan nan nan nan nan nan nan nan nan nan nan nan nan nan nan nan nan nan nan nan nan nan nan nan nan nan nan nan nan nan nan nan nan nan nan nan nan nan nan nan nan nan nan nan nan nan nan
1 0 nan 1 1 1 3 4 8 8 12 9 5 5 3 2 2 2 3 28 28 12 nan 2 2 0 nan nan nan nan nan nan nan nan nan nan nan nan nan nan nan nan nan nan nan nan nan nan nan nan nan nan nan nan nan nan nan nan nan nan nan nan nan nan nan nan nan nan nan nan nan nan nan nan nan nan nan nan nan nan nan nan nan nan nan nan
2 0 nan 0 0 2 4 3 9 9 12 6 4 4 3 2 1 1 4 9 9 26 3 0 0 nan nan nan nan nan nan nan nan nan nan nan nan nan nan nan nan nan nan nan nan nan nan nan nan nan nan nan nan nan nan nan nan nan nan nan nan nan nan nan nan nan nan nan nan nan nan nan nan nan nan nan nan nan nan nan nan nan nan nan nan nan
3 1 1 1 1 2 3 0 10 10 12 6 4 4 5 3 1 1 1 4 4 4 nan nan nan nan nan nan nan nan nan nan nan nan nan nan nan nan nan nan nan nan nan nan nan nan nan nan nan nan nan nan nan nan nan nan nan nan nan nan nan nan nan nan nan nan nan nan nan nan nan nan nan nan nan nan nan nan nan nan nan nan nan nan nan nan
4 2 2 2 2 1 4 5 7 7 8 7 5 5 5 4 2 2 2 2 2 7 nan nan nan nan nan nan nan nan nan nan nan nan nan nan nan nan nan nan nan nan nan nan nan nan nan nan nan nan nan nan nan nan nan nan nan nan nan nan nan nan nan nan nan nan nan nan nan nan nan nan nan nan nan nan nan nan nan nan nan nan nan nan nan nan
3 4 5 6 6 9 12 12 14 14 5 4 3 3 2 4 3 3 2 2 2 7 nan nan nan nan nan nan nan nan nan nan nan nan nan nan nan nan nan nan nan nan nan nan nan nan nan nan nan nan nan nan nan nan nan nan nan nan nan nan nan nan nan nan nan nan nan nan nan nan nan nan nan nan nan nan nan nan nan nan nan nan nan nan nan nan
18 16 11 22 22 34 36 41 37 37 22 5 1 1 1 2 3 3 2 2 2 4 nan nan nan nan nan nan nan nan nan nan nan nan nan nan nan nan nan nan nan nan nan nan nan 0 0 nan nan nan nan nan nan nan nan nan nan nan nan nan nan nan nan nan nan nan nan nan nan nan nan nan nan nan nan nan nan nan nan nan nan nan nan nan nan nan
37 37 40 42 42 36 34 35 40 40 38 20 3 3 1 0 0 0 2 2 2 5 nan nan nan nan nan nan nan nan nan nan nan nan nan nan nan nan nan nan nan nan nan 1 1 2 1 nan nan nan nan nan nan nan nan nan nan nan nan nan nan nan nan nan nan nan nan nan nan nan nan nan nan nan nan nan nan nan nan nan nan nan nan nan nan nan
30 28 30 30 30 28 27 28 35 35 36 28 19 19 2 nan nan nan nan nan nan 5 0 nan nan nan nan nan nan nan nan nan nan nan nan nan nan nan nan nan nan nan nan nan nan nan 2 1 1 nan nan nan nan nan nan nan nan nan nan nan nan nan nan nan nan nan nan nan nan nan nan nan nan nan nan nan nan nan nan nan nan nan nan nan nan nan
21 19 21 25 25 24 23 22 27 27 32 29 21 21 4 nan nan nan nan nan nan 1 2 nan nan nan nan nan nan nan nan 0 0 0 nan nan nan nan nan nan nan nan nan nan nan nan nan nan nan 2 1 0 nan nan nan 0 0 0 nan nan nan nan nan nan nan nan nan nan nan nan nan nan nan nan nan nan nan nan nan nan nan nan nan nan nan nan
2 6 7 14 14 16 13 4 16 16 27 29 21 21 7 nan nan nan nan nan nan 1 2 nan nan nan nan nan nan nan nan nan nan nan nan nan nan nan nan nan nan nan nan nan nan nan nan nan nan nan 3 1 nan nan nan nan nan nan 0 nan nan nan nan nan nan nan nan nan nan nan nan nan nan nan nan nan nan nan nan nan nan nan nan nan nan nan
nan nan nan nan nan 0 nan nan 2 2 14 20 15 15 6 nan nan nan nan nan nan 0 4 nan nan nan nan nan nan nan nan nan nan nan nan nan nan nan nan nan nan nan nan nan nan nan nan nan nan nan 2 3 1 1 nan nan nan nan nan 0 0 0 nan nan nan nan nan nan nan nan nan nan nan nan nan nan nan nan nan nan nan nan nan nan nan nan
nan nan nan nan nan nan nan nan nan nan nan nan nan nan 2 2 0 0 nan nan nan nan 1 0 0 nan nan nan nan nan nan nan 0 0 1 nan nan nan nan nan nan nan nan nan nan nan nan nan nan nan nan nan nan nan nan nan nan nan nan nan nan nan 0 nan nan 1 0 1 0 0 nan nan nan nan nan nan nan nan nan nan nan nan nan nan nan nan
nan nan nan nan nan nan nan nan nan nan nan nan nan nan nan nan 2 2 nan nan nan nan 0 0 0 nan nan nan nan nan nan nan 1 1 1 nan nan nan nan nan nan nan nan nan nan nan nan nan nan nan nan nan nan nan nan nan nan nan nan nan nan nan nan nan nan nan nan nan nan nan nan nan nan nan nan nan nan nan nan nan nan nan nan nan nan nan
nan nan nan nan nan nan nan nan nan nan nan nan nan nan nan nan nan nan nan nan nan nan nan nan nan nan nan nan nan nan nan nan 1 1 2 nan nan nan nan nan nan nan nan nan nan nan nan nan nan nan nan nan nan nan nan nan nan nan nan nan nan nan nan nan nan nan nan nan nan nan nan nan nan nan nan nan nan nan nan nan nan nan nan nan nan nan
nan nan nan nan nan nan nan nan nan nan nan nan nan nan nan nan nan nan nan nan nan nan nan nan nan nan nan nan nan nan nan nan 0 0 2 0 nan nan nan nan nan nan nan nan nan nan nan nan nan nan nan nan nan nan nan nan nan nan nan nan nan nan nan nan nan nan nan nan nan nan nan nan nan nan nan nan nan nan nan nan nan nan nan nan nan nan
nan nan nan nan nan nan nan nan nan nan nan nan nan nan nan nan nan nan nan nan nan nan nan nan nan nan nan nan nan nan nan nan 0 0 1 0 nan nan nan nan nan nan nan nan nan nan nan nan nan nan nan nan nan nan nan nan nan nan nan nan nan nan nan nan nan nan nan nan nan nan nan nan nan nan nan nan nan nan nan nan nan nan nan nan nan nan
nan nan nan nan nan nan nan nan nan nan nan nan nan nan nan nan nan nan nan nan nan nan nan nan nan nan 1 nan nan nan nan nan nan nan nan nan nan nan nan nan nan nan nan nan nan nan nan nan nan nan nan nan nan nan nan nan nan nan nan nan nan nan nan nan nan nan nan nan nan nan nan nan nan nan nan nan nan nan nan nan nan nan nan nan nan nan
nan nan nan nan nan nan nan nan nan nan nan nan nan nan nan nan nan nan nan nan nan nan nan nan nan nan 1 1 nan nan nan nan nan nan nan nan nan nan nan nan nan nan nan nan nan nan nan nan nan nan nan nan nan nan nan nan nan nan nan nan nan nan nan nan nan nan nan nan nan nan nan nan nan nan nan nan nan nan nan nan nan nan nan nan nan nan
nan nan nan nan nan nan nan nan nan nan nan nan nan nan nan nan nan nan nan nan nan nan nan nan nan nan nan nan nan nan nan nan nan nan nan nan nan nan nan nan nan nan nan nan nan nan nan nan nan nan nan nan nan nan nan nan nan nan nan nan nan nan nan nan nan nan nan nan nan nan nan nan nan nan nan nan nan nan nan nan nan nan nan nan nan nan
nan nan nan nan nan nan nan nan nan nan nan nan nan nan nan nan nan nan nan nan nan nan nan nan nan nan nan nan nan nan nan nan nan nan nan nan nan nan nan nan nan nan nan nan nan nan nan nan nan nan nan nan nan nan nan nan nan nan nan nan nan nan nan nan nan nan nan nan nan nan nan nan nan nan nan nan nan nan nan nan nan nan nan nan nan nan
nan nan nan nan nan nan nan nan nan nan nan nan nan nan nan nan nan nan nan nan nan nan nan nan nan nan nan nan nan nan nan nan nan nan nan nan nan nan nan nan nan nan nan nan nan nan nan nan nan nan nan nan nan nan nan nan nan nan nan nan nan nan nan nan nan nan nan nan nan nan nan nan nan nan nan nan nan nan nan nan nan nan nan nan nan nan
0 nan nan nan nan nan nan nan nan nan nan nan nan nan nan nan nan nan nan nan nan nan nan nan nan nan nan nan nan nan nan nan nan nan nan nan nan nan nan nan nan nan nan nan nan nan nan nan nan nan nan nan nan nan nan nan nan nan nan nan nan nan nan nan nan nan nan nan nan nan nan nan nan nan nan nan nan nan nan nan nan nan nan nan nan nan
nan nan nan nan nan nan nan nan nan nan nan nan nan nan nan nan nan nan nan nan nan nan nan nan nan nan nan nan nan nan nan nan nan nan nan nan nan nan nan nan nan nan nan nan nan nan nan nan nan nan nan nan nan nan nan nan nan nan nan nan nan nan nan nan nan nan nan nan nan nan nan nan nan nan nan nan nan nan nan nan nan nan nan nan nan nan
nan nan nan nan nan nan nan nan nan nan nan nan nan nan nan nan nan nan nan nan nan nan nan nan nan nan nan nan nan nan nan nan nan nan nan 0 nan nan nan nan nan nan nan nan nan nan nan nan nan nan nan nan nan nan nan nan nan nan nan nan nan nan nan nan nan nan nan nan nan nan nan nan nan nan nan nan nan nan nan nan nan nan nan nan nan nan
nan nan nan nan nan nan nan nan nan nan nan nan nan nan nan nan nan nan nan nan nan nan nan nan nan nan nan nan nan nan nan nan nan nan nan 1 2 2 nan nan nan nan nan nan nan nan nan nan nan nan nan nan nan nan nan nan nan nan nan nan nan nan nan nan nan nan nan nan nan nan nan nan nan nan nan nan nan nan nan nan nan nan nan nan nan nan
nan nan nan nan nan nan nan nan nan nan nan nan nan nan nan nan nan nan nan nan nan nan nan nan nan nan nan nan nan nan nan nan nan nan nan nan nan nan nan nan nan nan nan nan nan nan nan nan nan nan nan nan nan nan nan nan nan nan nan nan nan nan nan nan nan nan nan nan nan nan nan nan nan nan nan nan nan nan nan nan nan nan nan nan nan nan
nan nan nan nan nan nan nan nan nan nan nan nan nan nan nan nan nan nan nan nan nan nan nan nan nan nan nan nan nan nan nan nan nan nan nan nan nan nan nan nan nan nan nan nan nan nan nan nan nan nan nan nan nan nan nan nan nan nan nan nan nan nan nan nan nan nan nan nan nan nan nan nan nan nan nan nan nan nan nan nan nan nan nan nan nan nan
nan nan nan nan nan nan nan nan nan nan nan nan nan nan nan nan nan nan nan nan nan nan nan nan nan nan nan nan nan nan nan nan nan nan nan nan nan nan nan nan nan nan nan nan nan nan nan nan nan nan nan nan nan nan nan nan nan nan nan nan nan nan nan nan nan nan nan nan nan nan nan nan nan nan nan nan nan nan nan nan nan nan nan nan nan nan
nan nan nan nan nan nan nan nan nan nan nan nan nan nan nan 0 9 9 nan nan nan nan nan nan nan nan nan nan nan nan nan nan nan nan nan nan nan nan nan nan nan nan nan nan nan nan nan nan nan nan nan nan nan nan nan nan nan nan nan nan nan nan nan nan nan nan nan nan nan nan nan nan nan nan nan nan nan nan nan nan nan nan nan nan nan nan
nan nan nan nan nan nan nan nan nan nan nan nan nan nan nan nan nan nan nan nan nan nan nan nan nan nan nan nan nan nan nan nan nan nan nan nan nan nan nan nan nan nan nan nan nan nan nan nan nan 1 3 nan nan nan nan nan nan nan nan nan nan nan nan nan nan nan nan nan nan nan nan nan nan nan nan nan nan nan nan nan nan nan nan nan nan nan
nan nan nan nan nan nan nan nan nan nan nan nan nan nan nan nan nan nan nan nan nan nan nan nan nan nan nan nan nan nan nan nan nan nan nan nan nan nan nan nan nan nan nan nan nan nan nan nan nan nan 3 13 nan nan nan nan nan nan nan nan nan nan nan nan nan nan nan nan nan nan nan nan nan nan nan nan nan nan nan nan nan nan nan nan nan nan
CIN
-5 nan nan nan nan nan nan nan nan nan nan nan nan nan nan nan nan nan nan nan nan nan nan nan nan nan nan -161 -95 -95 -97 -109 -147 -147 -194 -2 -295 -295 nan nan nan nan nan nan nan nan nan nan nan -381 -318 -295 -313 -313 -319 -270 -270 -240 -206 -187 -187 -222 -238 -231 -231 -196 -169 -101 -41 -41 -21 -13 -7 -7 -3 -6 -8 -8 -10 -13 -13 -22 -38 -37 -37 -32
-5 nan nan nan nan nan nan nan nan nan nan nan nan nan -122 nan nan nan nan nan nan nan -136 -209 -209 nan nan nan -115 -115 -82 -93 -145 -145 -186 -228 -3 -3 nan nan nan nan nan nan nan nan nan nan nan nan -356 -322 -345 -345 -343 -301 -301 -250 -218 -206 -206 -223 -246 -220 -220 -194 -178 -114 -60 -60 -24 -12 -3 -3 -0 -0 -0 -0 -0 -1 -1 -25 -98 -127 -127 -124
-2 -3 nan nan nan nan nan nan nan nan nan nan nan nan -40 -129 nan nan nan -133 -133 nan -75 -81 -81 -156 nan nan -106 -106 -107 -109 -134 -134 -171 -4 -4 -4 nan nan nan nan nan nan nan nan nan nan nan nan nan -351 -363 -363 -376 -335 -335 -297 -261 -258 -258 -296 -303 nan nan nan -181 -133 -95 -95 -60 -43 -1 -1 0 0 -0 -0 -1 -75 -75 -100 -130 -135 -135 -129
-0 0 -1 nan nan nan nan nan nan nan nan nan -103 -103 -34 -38 -125 -125 -153 nan nan nan -6 -3 -3 -51 -129 -196 -135 -135 -101 -95 -114 -114 -147 -198 nan nan nan nan nan nan nan nan nan nan nan nan nan nan nan nan -408 -408 -409 -394 -394 -367 -381 -390 -390 nan nan nan nan nan nan -175 -145 -145 -132 -135 -88 -88 -0 -1 -81 -81 -117 -144 -144 -110 -123 -121 -121 -126
0 0 -3 nan nan nan nan nan nan nan nan nan -32 -32 -25 -33 -47 -47 nan nan nan nan -56 -1 -1 -3 -40 -101 -144 -144 -90 -83 -102 -102 -129 -173 nan nan nan nan nan nan nan nan nan nan nan nan nan nan nan nan nan nan nan nan nan nan nan nan nan nan nan nan nan nan nan nan nan nan -260 nan -180 -180 -158 -151 -141 -141 -131 -0 -0 -1 -108 -114 -114 -20
0 0 -7 nan nan nan nan nan nan nan nan -33 -20 -20 -14 -24 -46 -46 -55 nan nan nan -68 -1 -1 -2 -13 -51 -104 -104 -84 -76 -102 -102 -122 -159 nan nan nan nan nan nan nan nan nan nan nan nan nan nan nan nan nan nan nan nan nan nan nan nan nan nan nan nan nan nan nan nan nan nan nan nan nan nan nan nan nan nan -157 -0 -0 -0 -108 -114 -114 -16
0 -0 nan nan nan nan nan nan nan nan -34 -15 -9 -9 -10 -20 -40 -40 -45 -34 -34 nan -67 -34 -34 -1 -6 -113 -115 -115 -93 -99 -106 -106 -136 -166 -4 -4 -4 nan nan nan nan nan nan nan nan nan nan nan nan nan nan nan nan nan nan nan nan nan nan nan nan nan nan nan nan nan nan nan nan nan nan nan nan nan nan nan nan -3 -3 -2 -123 -128 -128 -3
-0 -3 nan nan nan nan nan nan nan nan -35 -15 -2 -2 -1 -7 -27 -27 -40 -46 -46 nan -16 -1 -1 -1 -2 -18 nan nan nan -119 -118 -118 -146 -3 -3 -3 -3 -4 -4 nan nan nan nan nan nan nan nan nan nan nan nan nan nan nan nan nan nan nan nan nan nan nan nan nan nan nan nan nan nan nan nan nan nan nan nan nan nan nan nan -5 -3 -1 -1 -1
-0 -0 -2 nan nan nan nan nan nan nan -58 -17 -7 -7 -5 -10 -23 -23 -33 -41 -41 nan -23 -5 -5 -1 -7 -23 nan nan nan nan -148 -148 -2 -2 -2 -2 -3 nan nan nan nan nan nan nan nan nan nan nan nan nan nan nan nan nan nan nan nan nan nan nan nan nan nan nan nan nan nan nan nan nan nan nan nan nan nan nan nan nan nan nan nan -7 -7 -5
-1 -0 -1 -5 -5 -12 -14 -14 nan nan nan -44 -42 -42 -28 -25 -23 -23 -27 -33 -33 nan -29 -13 -13 -1 -3 -18 nan nan nan nan nan nan -232 -243 -206 -206 -223 nan nan nan nan nan nan nan nan nan nan nan nan nan nan nan nan nan nan nan nan nan nan nan nan nan nan nan nan nan nan nan nan nan nan nan nan nan nan nan nan nan nan nan nan nan nan -16
-1 -1 -1 -1 -1 -9 -29 -37 nan nan nan -44 -39 -39 -62 -53 -24 -24 -19 nan nan nan -29 -18 -18 -4 -1 -12 nan nan nan nan nan nan nan nan nan nan nan nan nan nan nan nan nan nan nan nan nan nan nan nan nan nan nan nan nan nan nan nan nan nan nan nan nan nan nan nan nan nan nan nan nan nan nan nan nan nan nan nan nan nan nan nan nan nan
-0 -1 -2 -2 -2 -6 -19 nan nan nan nan -22 -17 -17 -10 -58 -33 -33 -15 nan nan nan nan -24 -24 -14 -6 -16 nan nan nan nan nan nan nan nan nan nan -212 -209 -209 -245 nan nan nan nan nan nan nan nan nan nan nan nan nan nan nan nan nan nan nan nan nan nan nan nan nan nan nan nan nan nan nan nan nan nan nan nan nan nan nan nan nan nan nan nan
0 0 -0 -1 -1 -6 -10 -20 nan nan nan -34 -40 -40 -34 -39 -29 -29 -13 nan nan nan nan nan nan -17 nan nan nan nan nan nan nan nan nan nan nan nan -221 -5 -5 -144 -3 -172 -172 -219 nan nan nan nan nan nan nan nan nan nan nan nan nan nan nan nan nan nan nan nan nan nan nan nan nan nan nan nan nan nan nan nan nan nan nan nan nan nan nan nan
0 0 0 -0 -0 -2 -4 -2 -6 -6 -14 -34 nan nan nan nan -33 -33 -12 -16 -16 nan -25 nan nan nan nan nan nan nan nan nan nan nan nan nan nan nan nan -233 -233 -186 -5 -3 -3 -201 nan nan nan nan nan nan nan nan nan nan nan nan nan nan nan nan nan nan nan nan nan nan nan nan nan nan nan nan nan nan nan nan nan nan nan nan nan nan nan nan
0 0 0 0 0 0 0 0 0 0 0 0 0 0 nan nan nan nan -10 -10 -10 -17 -18 -18 -18 nan nan nan nan nan nan nan nan nan nan nan nan nan nan nan nan -259 -202 -185 -185 nan nan nan nan nan nan nan nan nan nan nan nan nan nan nan nan nan nan nan nan nan nan nan nan nan nan nan nan nan nan nan nan nan nan nan nan nan nan nan nan nan
0 0 0 0 0 0 0 0 0 0 0 0 0 0 0 nan nan nan -18 -10 -10 -10 -7 -5 -5 nan nan nan nan nan nan nan nan nan nan nan nan nan nan nan nan nan nan nan nan nan nan nan nan nan nan nan nan nan nan nan nan nan nan nan nan nan nan nan nan nan nan nan nan nan nan nan nan nan nan nan nan nan nan nan nan nan nan nan nan nan
0 0 0 0 0 -0 -0 -0 -0 -0 -0 -0 0 0 0 0 -0 -0 -24 -19 -19 -7 -3 -2 -2 -5 nan nan nan nan nan nan nan nan nan nan nan nan nan nan nan nan nan nan nan nan nan nan nan nan nan nan nan nan nan nan nan nan nan nan nan nan nan nan nan nan nan nan nan nan nan nan nan nan nan nan nan nan nan nan nan nan nan nan nan nan
-0 0 0 0 0 0 -0 -0 -0 -0 -0 -0 -0 -0 -0 0 0 0 -11 -15 -15 -7 -3 -4 -4 -6 nan nan nan nan nan nan nan nan nan nan nan nan nan nan nan nan nan nan nan nan nan nan nan nan nan nan nan nan nan nan nan nan nan nan nan nan nan nan nan nan nan nan nan nan nan nan nan nan nan nan nan nan nan nan nan nan nan nan nan nan
-0 -0 0 0 0 0 -0 -0 -0 -0 -0 -0 -0 -0 -0 -0 0 0 0 -3 -3 -11 -11 -6 -6 -9 nan nan nan nan nan nan nan nan nan nan nan nan nan nan nan nan nan nan nan nan nan nan nan nan nan nan nan nan nan nan nan nan nan nan nan nan nan nan nan nan nan nan nan nan nan nan nan nan nan nan nan nan nan nan nan nan nan nan nan nan
-0 -0 -0 -0 -0 -0 -0 -0 -0 -0 0 0 -0 -0 -0 -0 0 0 0 -0 -0 -22 -35 -15 -15 -13 nan nan nan nan nan nan nan nan nan nan nan nan nan nan nan nan nan nan nan nan nan nan nan nan nan nan nan nan nan nan nan nan nan nan nan nan nan nan nan nan nan nan nan nan nan nan nan nan nan nan nan nan nan nan nan nan nan nan nan nan
-0 -1 nan -0 -0 -0 -0 -0 0 0 0 0 -0 -0 -0 -0 0 0 0 -0 -0 -17 nan -22 -22 -20 nan nan nan nan nan nan nan nan nan nan nan nan nan nan nan nan nan nan nan nan nan nan nan nan nan nan nan nan nan nan nan nan nan nan nan nan nan nan nan nan nan nan nan nan nan nan nan nan nan nan nan nan nan nan nan nan nan nan nan nan
-0 -1 nan -1 -1 -0 0 -0 0 0 0 -0 0 0 0 0 0 0 0 0 0 -0 -14 -30 -30 nan nan nan nan nan nan nan nan nan nan nan nan nan nan nan nan nan nan nan nan nan nan nan nan nan nan nan nan nan nan nan nan nan nan nan nan nan nan nan nan nan nan nan nan nan nan nan nan nan nan nan nan nan nan nan nan nan nan nan nan nan
-0 -1 -2 -1 -1 -1 -0 -0 0 0 0 -0 0 0 0 0 0 0 0 0 0 0 nan nan nan nan nan nan nan nan nan nan nan nan nan nan nan nan nan nan nan nan nan nan nan nan nan nan nan nan nan nan nan nan nan nan nan nan nan nan nan nan nan nan nan nan nan nan nan nan nan nan nan nan nan nan nan nan nan nan nan nan nan nan nan nan
-1 -1 -1 -2 -2 -1 -0 -0 -0 -0 -0 -0 -0 -0 -0 0 -0 -0 0 0 0 0 nan nan nan nan nan nan nan nan nan nan nan nan nan nan nan nan nan nan nan nan nan nan nan nan nan nan nan nan nan nan nan nan nan nan nan nan nan nan nan nan nan nan nan nan nan nan nan nan nan nan nan nan nan nan nan nan nan nan nan nan nan nan nan nan
-2 -1 -1 -1 -1 -1 -0 -0 -0 -0 -1 -1 -0 -0 0 0 0 0 0 0 0 0 nan nan nan nan nan nan nan nan nan nan nan nan nan nan nan nan nan nan nan nan nan nan nan nan nan nan nan nan nan nan nan nan nan nan nan nan nan nan nan nan nan nan nan nan nan nan nan nan nan nan nan nan nan nan nan nan nan nan nan nan nan nan nan nan
0 0 0 0 0 0 0 0 0 0 0 -0 -1 -1 0 0 0 0 0 0 0 0 nan nan nan nan nan nan nan nan nan nan nan nan nan nan nan nan nan nan nan nan nan nan nan -2 -2 nan nan nan nan nan nan nan nan nan nan nan nan nan nan nan nan nan nan nan nan nan nan nan nan nan nan nan nan nan nan nan nan nan nan nan nan nan nan nan
0 0 0 0 0 0 0 0 0 0 0 0 0 0 -0 -0 -0 -0 0 0 0 0 nan nan nan nan nan nan nan nan nan nan nan nan nan nan nan nan nan nan nan nan nan -1 -1 -1 -2 nan nan nan nan nan nan nan nan nan nan nan nan nan nan nan nan nan nan nan nan nan nan nan nan nan nan nan nan nan nan nan nan nan nan nan nan nan nan nan
0 0 0 0 0 0 0 0 0 0 0 0 0 0 0 nan nan nan nan nan nan 0 0 nan nan nan nan nan nan nan nan nan nan nan nan nan nan nan nan nan nan nan nan nan nan nan -2 -2 -2 nan nan nan nan nan nan nan nan nan nan nan nan nan nan nan nan nan nan nan nan nan nan nan nan nan nan nan nan nan nan nan nan nan nan nan nan nan
0 0 0 0 0 0 0 0 0 0 0 0 0 0 0 nan nan nan nan nan nan 0 0 nan nan nan nan nan nan nan nan 0 0 0 nan nan nan nan nan nan nan nan nan nan nan nan nan nan nan -1 -0 -1 nan nan nan -3 -3 -3 nan nan nan nan nan nan nan nan nan nan nan nan nan nan nan nan nan nan nan nan nan nan nan nan nan nan nan nan
0 0 0 0 0 0 0 0 0 0 0 0 0 0 0 nan nan nan nan nan nan 0 0 nan nan nan nan nan nan nan nan nan nan nan nan nan nan nan nan nan nan nan nan nan nan nan nan nan nan nan -0 -2 nan nan nan nan nan nan -2 nan nan nan nan nan nan nan nan nan nan nan nan nan nan nan nan nan nan nan nan nan nan nan nan nan nan nan
nan nan nan nan nan 0 nan nan 0 0 0 0 0 0 0 nan nan nan nan nan nan 0 0 nan nan nan nan nan nan nan nan nan nan nan nan nan nan nan nan nan nan nan nan nan nan nan nan nan nan nan -2 -2 -2 -2 nan nan nan nan nan -2 -2 -2 nan nan nan nan nan nan nan nan nan nan nan nan nan nan nan nan nan nan nan nan nan nan nan nan
nan nan nan nan nan nan nan nan nan nan nan nan nan nan 0 0 -0 -0 nan nan nan nan 0 0 0 nan nan nan nan nan nan nan 0 0 0 nan nan nan nan nan nan nan nan nan nan nan nan nan nan nan nan nan nan nan nan nan nan nan nan nan nan nan -2 nan nan -0 -1 0 0 0 nan nan nan nan nan nan nan nan nan nan nan nan nan nan nan nan
nan nan nan nan nan nan nan nan nan nan nan nan nan nan nan nan 0 0 nan nan nan nan -0 0 0 nan nan nan nan nan nan nan 0 0 0 nan nan nan nan nan nan nan nan nan nan nan nan nan nan nan nan nan nan nan nan nan nan nan nan nan nan nan nan nan nan nan nan nan nan nan nan nan nan nan nan nan nan nan nan nan nan nan nan nan nan nan
nan nan nan nan nan nan nan nan nan nan nan nan nan nan nan nan nan nan nan nan nan nan nan nan nan nan nan nan nan nan nan nan 0 0 0 nan nan nan nan nan nan nan nan nan nan nan nan nan nan nan nan nan nan nan nan nan nan nan nan nan nan nan nan nan nan nan nan nan nan nan nan nan nan nan nan nan nan nan nan nan nan nan nan nan nan nan
nan nan nan nan nan nan nan nan nan nan nan nan nan nan nan nan nan nan nan nan nan nan nan nan nan nan nan nan nan nan nan nan 0 0 0 0 nan nan nan nan nan nan nan nan nan nan nan nan nan nan nan nan nan nan nan nan nan nan nan nan nan nan nan nan nan nan nan nan nan nan nan nan nan nan nan nan nan nan nan nan nan nan nan nan nan nan
nan nan nan nan nan nan nan nan nan nan nan nan nan nan nan nan nan nan nan nan nan nan nan nan nan nan nan nan nan nan nan nan 0 0 0 0 nan nan nan nan nan nan nan nan nan nan nan nan nan nan nan nan nan nan nan nan nan nan nan nan nan nan nan nan nan nan nan nan nan nan nan nan nan nan nan nan nan nan nan nan nan nan nan nan nan nan
nan nan nan nan nan nan nan nan nan nan nan nan nan nan nan nan nan nan nan nan nan nan nan nan nan nan -0 nan nan nan nan nan nan nan nan nan nan nan nan nan nan nan nan nan nan nan nan nan nan nan nan nan nan nan nan nan nan nan nan nan nan nan nan nan nan nan nan nan nan nan nan nan nan nan nan nan nan nan nan nan nan nan nan nan nan nan
nan nan nan nan nan nan nan nan nan nan nan nan nan nan nan nan nan nan nan nan nan nan nan nan nan nan -0 -0 nan nan nan nan nan nan nan nan nan nan nan nan nan nan nan nan nan nan nan nan nan nan nan nan nan nan nan nan nan nan nan nan nan nan nan nan nan nan nan nan nan nan nan nan nan nan nan nan nan nan nan nan nan nan nan nan nan nan
nan nan nan nan nan nan nan nan nan nan nan nan nan nan nan nan nan nan nan nan nan nan nan nan nan nan nan nan nan nan nan nan nan nan nan nan nan nan nan nan nan nan nan nan nan nan nan nan nan nan nan nan nan nan nan nan nan nan nan nan nan nan nan nan nan nan nan nan nan nan nan nan nan nan nan nan nan nan nan nan nan nan nan nan nan nan
nan nan nan nan nan nan nan nan nan nan nan nan nan nan nan nan nan nan nan nan nan nan nan nan nan nan nan nan nan nan nan nan nan nan nan nan nan nan nan nan nan nan nan nan nan nan nan nan nan nan nan nan nan nan nan nan nan nan nan nan nan nan nan nan nan nan nan nan nan nan nan nan nan nan nan nan nan nan nan nan nan nan nan nan nan nan
nan nan nan nan nan nan nan nan nan nan nan nan nan nan nan nan nan nan nan nan nan nan nan nan nan nan nan nan nan nan nan nan nan nan nan nan nan nan nan nan nan nan nan nan nan nan nan nan nan nan nan nan nan nan nan nan nan nan nan nan nan nan nan nan nan nan nan nan nan nan nan nan nan nan nan nan nan nan nan nan nan nan nan nan nan nan
0 nan nan nan nan nan nan nan nan nan nan nan nan nan nan nan nan nan nan nan nan nan nan nan nan nan nan nan nan nan nan nan nan nan nan nan nan nan nan nan nan nan nan nan nan nan nan nan nan nan nan nan nan nan nan nan nan nan nan nan nan nan nan nan nan nan nan nan nan nan nan nan nan nan nan nan nan nan nan nan nan nan nan nan nan nan
nan nan nan nan nan nan nan nan nan nan nan nan nan nan nan nan nan nan nan nan nan nan nan nan nan nan nan nan nan nan nan nan nan nan nan nan nan nan nan nan nan nan nan nan nan nan nan nan nan nan nan nan nan nan nan nan nan nan nan nan nan nan nan nan nan nan nan nan nan nan nan nan nan nan nan nan nan nan nan nan nan nan nan nan nan nan
nan nan nan nan nan nan nan nan nan nan nan nan nan nan nan nan nan nan nan nan nan nan nan nan nan nan nan nan nan nan nan nan nan nan nan 0 nan nan nan nan nan nan nan nan nan nan nan nan nan nan nan nan nan nan nan nan nan nan nan nan nan nan nan nan nan nan nan nan nan nan nan nan nan nan nan nan nan nan nan nan nan nan nan nan nan nan
nan nan nan nan nan nan nan nan nan nan nan nan nan nan nan nan nan nan nan nan nan nan nan nan nan nan nan nan nan nan nan nan nan nan nan 0 0 0 nan nan nan nan nan nan nan nan nan nan nan nan nan nan nan nan nan nan nan nan nan nan nan nan nan nan nan nan nan nan nan nan nan nan nan nan nan nan nan nan nan nan nan nan nan nan nan nan
nan nan nan nan nan nan nan nan nan nan nan nan nan nan nan nan nan nan nan nan nan nan nan nan nan nan nan nan nan nan nan nan nan nan nan nan nan nan nan nan nan nan nan nan nan nan nan nan nan nan nan nan nan nan nan nan nan nan nan nan nan nan nan nan nan nan nan nan nan nan nan nan nan nan nan nan nan nan nan nan nan nan nan nan nan nan
nan nan nan nan nan nan nan nan nan nan nan nan nan nan nan nan nan nan nan nan nan nan nan nan nan nan nan nan nan nan nan nan nan nan nan nan nan nan nan nan nan nan nan nan nan nan nan nan nan nan nan nan nan nan nan nan nan nan nan nan nan nan nan nan nan nan nan nan nan nan nan nan nan nan nan nan nan nan nan nan nan nan nan nan nan nan
nan nan nan nan nan nan nan nan nan nan nan nan nan nan nan nan nan nan nan nan nan nan nan nan nan nan nan nan nan nan nan nan nan nan nan nan nan nan nan nan nan nan nan nan nan nan nan nan nan nan nan nan nan nan nan nan nan nan nan nan nan nan nan nan nan nan nan nan nan nan nan nan nan nan nan nan nan nan nan nan nan nan nan nan nan nan
nan nan nan nan nan nan nan nan nan nan nan nan nan nan nan 0 0 0 nan nan nan nan nan nan nan nan nan nan nan nan nan nan nan nan nan nan nan nan nan nan nan nan nan nan nan nan nan nan nan nan nan nan nan nan nan nan nan nan nan nan nan nan nan nan nan nan nan nan nan nan nan nan nan nan nan nan nan nan nan nan nan nan nan nan nan nan
nan nan nan nan nan nan nan nan nan nan nan nan nan nan nan nan nan nan nan nan nan nan nan nan nan nan nan nan nan nan nan nan nan nan nan nan nan nan nan nan nan nan nan nan nan nan nan nan nan -0 0 nan nan nan nan nan nan nan nan nan nan nan nan nan nan nan nan nan nan nan nan nan nan nan nan nan nan nan nan nan nan nan nan nan nan nan
nan nan nan nan nan nan nan nan nan nan nan nan nan nan nan nan nan nan nan nan nan nan nan nan nan nan nan nan nan nan nan nan nan nan nan nan nan nan nan nan nan nan nan nan nan nan nan nan nan nan 0 0 nan nan nan nan nan nan nan nan nan nan nan nan nan nan nan nan nan nan nan nan nan nan nan nan nan nan nan nan nan nan nan nan nan nan
Wind_Speed
8 9 9 9 7 6 7 7 7 6 6 5 5 4 2 2 2 2 3 3 3 3 3 2 2 2 2 5 8 9 10 11 10 10 10 10 11 11 11 11 11 11 11 11 11 12 13 13 14 15 16 16 17 18 20 21 22 22 22 22 21 20 20 19 19 19 19 19 20 22 23 22 21 19 18 17 16 16 17 18 19 20 22 24 25 25
9 9 9 9 8 7 6 7 6 5 5 6 6 5 3 2 2 2 2 3 3 3 3 3 2 2 2 3 5 8 9 10 10 10 10 10 10 11 11 11 11 11 11 11 11 12 12 13 14 15 15 16 17 17 18 20 21 22 22 22 21 21 20 20 20 20 20 20 20 21 21 21 20 19 18 17 17 17 18 19 20 22 24 25 26 25
8 8 8 8 7 7 5 5 5 5 5 5 6 6 5 3 2 2 2 3 3 3 3 3 3 3 3 3 5 7 8 9 10 10 10 10 10 11 11 11 11 11 11 11 11 12 12 13 14 14 15 16 16 17 18 19 20 20 20 20 20 19 19 19 19 20 20 20 20 20 20 19 18 18 17 17 17 18 19 20 21 23 25 26 26 25
9 9 9 7 6 6 5 5 4 4 4 5 6 6 6 3 2 2 1 2 3 3 4 3 3 3 3 3 4 6 8 9 10 10 10 10 11 11 11 11 12 11 11 11 11 12 12 12 13 14 15 15 16 17 17 18 18 18 17 17 17 17 17 17 18 19 19 19 19 18 18 17 17 17 17 17 18 18 19 20 22 24 25 26 26 25
9 9 8 6 6 5 5 4 4 4 4 4 5 5 5 3 2 2 1 2 2 3 3 3 3 3 4 4 5 6 7 9 10 10 11 11 11 12 12 12 12 12 12 12 11 11 11 12 13 13 14 15 15 16 16 16 15 15 14 14 14 14 15 16 17 17 18 17 16 15 15 15 16 17 17 18 19 20 21 22 23 24 26 26 26 25
9 8 7 6 5 4 3 3 3 3 3 4 4 4 4 3 3 2 2 1 2 2 2 3 3 3 4 5 5 6 7 8 9 10 11 12 13 13 13 13 13 13 13 12 12 12 12 12 12 13 13 14 15 15 15 15 15 14 14 13 13 14 15 16 17 17 17 16 14 13 13 14 16 17 18 19 20 22 23 24 25 26 26 26 26 25
7 7 6 5 4 4 3 3 3 2 3 3 3 4 3 3 3 2 2 1 1 1 2 2 3 4 5 4 5 5 5 7 8 10 12 13 14 15 15 15 15 14 14 14 13 13 12 12 12 12 13 14 14 14 14 15 15 15 15 15 14 14 14 15 16 17 17 16 15 13 13 14 16 18 20 21 22 23 24 25 26 27 27 26 26 26
7 6 6 5 4 4 3 3 2 2 2 3 4 4 3 3 3 2 2 2 1 1 1 2 3 4 4 4 4 4 4 5 6 8 10 12 14 15 16 16 16 16 15 15 14 14 13 13 12 12 13 14 14 14 14 15 16 17 17 16 16 15 14 14 15 16 17 16 15 13 13 15 18 21 23 24 24 24 24 24 25 27 27 26 26 26
8 7 6 6 5 5 4 3 2 2 2 4 4 4 4 3 2 2 1 1 2 2 1 2 3 3 4 3 3 3 3 4 5 6 7 9 10 12 14 15 16 16 16 16 15 15 14 14 13 13 14 14 15 14 14 16 17 18 18 17 17 16 15 14 14 15 16 16 14 13 14 17 21 24 26 26 25 24 24 24 25 26 26 26 26 26
8 7 6 6 5 5 5 4 3 3 3 4 4 4 4 3 3 2 2 2 1 2 2 2 3 3 3 3 3 2 2 3 4 6 7 8 9 11 12 13 13 14 16 15 15 15 14 14 13 13 13 14 14 14 14 16 18 18 18 17 17 17 16 15 14 14 15 15 14 15 17 20 23 26 27 27 27 26 25 25 25 25 25 25 26 26
7 7 6 5 4 4 4 4 3 3 3 4 4 4 3 3 2 2 2 2 2 1 1 2 2 3 3 3 2 2 2 2 3 4 6 8 9 11 12 12 12 12 14 14 14 14 14 14 13 13 13 13 14 14 15 16 18 18 18 17 17 17 17 16 15 15 15 15 17 18 20 22 23 25 27 27 27 27 26 25 24 24 24 25 25 26
5 5 4 4 4 3 3 3 3 2 3 3 4 4 3 2 1 2 2 2 2 2 1 1 1 2 3 2 2 2 2 2 2 2 2 5 7 8 9 10 10 10 11 12 12 13 13 14 13 13 13 13 13 14 14 15 16 17 17 17 17 17 17 17 16 16 16 18 20 22 22 22 23 24 26 27 27 27 26 25 24 24 24 25 25 26
4 4 3 3 3 3 3 3 3 2 3 3 3 3 3 2 1 1 2 2 3 2 2 1 1 2 2 2 2 2 2 2 2 2 1 2 3 5 6 7 7 7 7 8 8 9 11 12 13 13 13 13 14 15 15 15 16 17 17 17 17 17 17 17 17 17 19 22 24 24 23 23 23 23 25 26 27 27 27 26 25 24 24 25 25 25
5 5 4 3 3 2 2 3 3 3 3 2 2 2 2 1 1 2 2 2 2 2 1 1 1 2 2 2 1 2 3 3 2 2 2 1 0 2 4 6 6 6 5 5 5 6 7 8 9 10 13 14 14 15 15 16 16 17 17 17 17 17 17 18 19 21 24 26 27 26 24 23 23 23 24 26 27 27 27 27 26 25 25 25 25 25
5 5 6 5 5 4 5 5 5 4 4 4 4 4 4 2 1 2 2 2 1 1 1 1 2 2 2 2 1 2 3 3 3 3 2 1 1 1 2 4 5 5 5 5 5 5 6 6 7 7 10 12 14 14 15 16 17 18 18 18 19 19 20 22 24 26 28 28 28 27 25 25 24 24 25 26 26 27 27 27 26 26 25 25 25 25
4 4 5 5 6 6 5 5 5 6 6 5 5 6 5 3 1 1 2 2 1 1 1 2 2 3 2 2 2 2 3 3 3 3 3 2 1 2 0 3 5 5 5 5 5 5 6 6 6 7 9 13 15 17 18 18 19 21 22 22 23 24 25 27 28 29 30 30 29 28 27 26 26 26 26 26 26 27 27 27 26 26 26 25 25 25
4 4 5 5 5 4 4 4 4 4 4 4 4 4 4 4 3 2 0 2 2 2 2 2 2 2 2 2 1 1 2 3 4 4 4 2 1 2 1 3 5 5 5 5 5 5 6 6 6 7 9 14 18 20 22 23 24 25 26 27 28 29 30 30 30 30 30 30 29 29 28 28 27 27 27 27 27 27 27 27 27 26 26 26 26 25
4 5 5 5 5 5 4 4 4 4 4 4 4 4 4 4 4 3 2 1 2 3 3 3 2 2 1 1 1 1 2 2 3 4 4 3 1 2 2 2 4 5 5 5 5 5 6 7 7 8 11 18 21 23 24 26 28 29 30 30 31 32 32 32 31 31 30 30 29 29 29 28 28 27 27 27 27 27 27 27 27 27 26 26 26 26
5 5 5 5 4 4 4 4 4 4 5 5 5 5 4 4 4 4 3 2 2 3 4 3 3 2 1 1 1 1 2 2 3 4 5 3 1 1 2 2 3 5 5 5 4 5 6 7 9 13 17 22 24 25 26 28 29 31 31 32 32 33 33 32 32 31 30 30 30 29 29 29 28 28 27 27 27 27 27 27 27 27 27 27 26 26
5 5 5 5 5 5 5 5 5 6 6 6 5 5 4 4 4 3 3 2 2 3 3 3 3 3 1 1 1 1 2 2 3 4 4 3 2 1 2 2 4 5 6 5 4 4 6 8 12 17 23 25 26 27 27 29 30 31 31 32 32 33 33 33 32 31 31 31 30 30 30 29 29 28 28 28 28 28 28 28 28 28 27 27 27 26
5 5 5 5 5 5 5 5 6 7 8 7 6 5 4 3 3 3 3 3 2 3 4 4 3 3 2 1 1 2 2 2 2 3 3 3 2 2 2 2 3 6 7 5 5 5 7 9 11 14 21 25 27 28 28 29 30 31 32 32 32 32 33 33 32 32 32 31 31 31 31 30 30 30 29 29 29 28 28 28 28 28 27 27 26 26
5 5 6 6 5 5 5 6 7 8 8 7 6 4 3 3 3 3 4 4 3 3 3 3 3 2 2 1 0 1 2 2 2 3 3 3 2 2 2 2 3 6 7 6 6 6 8 8 10 13 21 27 29 30 30 30 31 32 32 32 32 32 32 32 32 32 32 32 32 32 31 31 31 31 30 30 29 28 28 27 27 27 27 27 26 25
5 5 6 6 6 5 6 6 6 7 7 6 5 4 3 3 3 4 4 5 5 4 3 1 1 2 3 2 1 2 2 2 2 2 3 3 2 2 2 1 2 5 7 7 7 7 8 8 9 13 22 29 31 31 30 30 31 31 32 32 32 31 31 31 31 31 32 32 32 31 31 31 31 31 31 30 29 28 27 27 27 27 26 26 25 25
6 6 6 6 6 6 6 6 5 5 5 4 4 4 4 4 4 5 4 5 6 5 4 1 1 2 3 3 2 2 2 2 1 2 3 3 2 2 1 1 3 6 8 8 8 9 10 9 9 11 17 26 30 31 31 31 31 31 31 32 32 31 31 31 31 31 31 31 31 31 31 31 30 30 30 30 29 28 27 27 26 26 26 25 25 24
8 8 7 8 9 10 10 9 9 9 7 5 5 5 5 5 6 6 5 6 6 5 4 1 2 2 2 2 2 2 2 2 1 2 3 3 3 2 1 2 4 6 8 8 8 9 10 10 10 10 13 20 26 30 32 32 32 32 32 32 32 32 31 31 31 31 31 31 31 31 31 30 30 29 29 29 28 28 27 26 26 26 26 25 24 24
12 13 13 14 16 18 18 18 17 17 16 11 8 6 5 5 5 4 4 4 4 4 3 2 3 3 2 2 2 2 2 2 2 2 4 4 3 3 2 2 4 6 8 7 8 9 11 11 11 10 11 15 22 28 31 32 32 32 32 31 31 31 31 31 30 30 30 30 30 30 30 29 29 28 28 28 28 27 27 26 26 25 25 24 23 23
19 19 20 20 21 21 21 21 21 22 22 19 16 12 8 6 4 4 4 4 4 3 3 2 2 3 3 2 2 1 2 2 1 2 4 5 4 3 2 2 4 6 7 6 7 9 12 12 11 11 10 12 16 22 28 29 30 30 30 30 30 30 29 29 29 29 29 29 29 28 28 28 27 27 27 27 27 27 26 26 25 24 22 20 19 18
20 20 20 21 21 21 21 20 21 21 22 22 21 18 11 8 6 6 6 6 6 6 4 3 3 3 3 3 2 2 2 2 2 0 4 5 5 4 3 3 4 5 7 6 7 8 11 10 10 10 10 10 12 16 21 24 26 27 27 27 28 27 27 27 27 27 27 27 26 26 26 26 26 26 26 26 26 26 25 25 23 21 18 14 11 10
18 19 19 20 20 20 19 18 18 19 21 22 21 18 13 9 7 6 5 5 5 5 5 3 3 3 4 4 3 2 2 2 3 3 3 5 6 4 4 4 4 5 6 6 5 6 7 7 7 8 9 10 11 12 14 16 19 21 22 24 25 25 25 25 25 25 25 25 25 25 25 25 25 24 25 25 25 25 24 23 21 18 13 11 9 8
15 15 15 17 17 16 15 14 14 16 18 20 19 17 12 8 6 5 5 5 5 5 6 4 3 4 4 5 4 2 2 1 3 4 4 4 6 6 5 5 4 5 5 5 5 5 5 5 5 5 8 9 10 9 9 10 11 13 15 18 20 22 24 24 25 25 24 24 24 24 24 24 24 24 24 24 24 24 23 22 18 14 10 9 8 8
12 12 12 12 12 12 11 11 11 12 14 16 16 14 11 8 7 6 5 5 4 5 7 4 3 4 5 5 5 3 1 1 3 4 5 3 6 7 7 6 5 5 4 5 5 5 4 3 3 4 6 7 7 7 7 8 8 8 9 11 14 17 21 23 23 23 24 24 24 24 24 24 24 23 23 23 23 23 22 20 17 13 9 8 8 7
10 10 9 9 9 9 9 9 9 9 10 11 11 11 11 10 8 7 6 5 5 5 6 5 3 0 2 3 4 4 2 1 3 4 6 2 5 7 7 7 7 5 3 4 6 6 6 4 3 3 5 5 5 5 6 7 7 7 8 9 10 13 19 20 21 21 21 23 24 24 24 24 24 23 23 23 22 22 21 20 17 13 9 8 8 7
9 8 8 8 8 8 8 8 8 8 8 9 9 9 9 10 9 9 7 7 6 6 6 6 5 3 3 3 3 3 2 1 2 5 6 2 3 6 7 8 7 7 5 4 5 6 6 5 5 4 4 4 4 5 5 6 6 7 8 9 9 11 15 15 16 16 16 18 20 21 22 23 23 23 22 22 22 21 21 20 17 14 11 9 8 8
9 9 9 9 8 8 8 8 9 9 9 9 9 9 9 9 9 9 9 8 7 6 6 6 5 4 3 2 3 2 2 1 3 5 5 3 2 6 8 8 8 8 7 5 5 6 6 7 7 7 6 5 4 5 5 6 6 7 8 9 9 9 10 11 11 12 13 13 13 14 16 17 19 20 19 20 19 19 19 19 18 16 14 10 9 8
9 9 9 9 9 9 9 9 9 9 9 9 9 9 9 9 9 8 9 8 8 7 6 5 5 4 3 2 2 2 2 1 4 5 5 3 2 4 7 7 8 9 9 8 8 7 7 7 9 9 8 6 5 5 5 5 6 7 8 9 9 8 8 9 9 10 10 10 10 9 9 10 11 13 14 16 17 17 18 18 17 17 15 13 11 8
8 9 9 9 9 9 9 10 10 10 10 9 9 9 9 9 8 8 8 8 8 7 7 6 5 5 4 4 3 2 1 2 4 6 5 4 2 3 5 6 8 9 11 11 10 10 9 8 9 10 10 8 6 5 4 5 6 7 8 9 9 8 8 9 9 9 9 9 9 8 7 7 8 9 10 15 17 18 18 18 18 17 16 15 13 10
8 9 9 9 9 9 9 9 9 9 9 9 9 9 9 8 8 8 8 8 7 7 7 6 6 6 7 5 4 2 1 2 4 5 5 3 1 1 4 5 6 8 10 11 12 12 11 10 10 9 8 7 6 5 5 5 6 7 7 8 8 8 8 8 9 9 10 10 9 8 8 7 7 8 10 15 17 17 18 18 18 17 17 16 15 13
9 9 9 9 9 9 9 9 9 9 9 9 8 9 9 9 9 9 8 8 8 7 6 6 6 7 11 9 7 5 4 4 4 5 6 4 3 2 4 5 5 6 7 10 12 13 13 13 12 10 7 6 6 7 7 7 7 7 7 7 7 8 8 7 8 8 9 9 9 9 8 7 7 7 8 9 9 9 10 11 12 15 16 16 16 15
9 9 9 9 9 9 9 9 9 8 8 8 8 8 8 8 9 8 8 7 7 7 6 5 5 6 10 12 12 11 10 9 8 8 8 7 5 4 5 6 6 6 6 7 9 11 13 13 12 11 10 8 7 7 6 7 7 8 8 7 8 8 7 7 7 7 8 9 9 9 8 7 7 7 6 6 6 6 6 6 7 9 9 10 11 13
9 8 9 9 9 9 8 9 8 8 7 8 8 8 8 8 8 8 8 8 7 7 6 5 5 6 9 11 13 13 13 11 10 9 8 7 6 5 5 6 7 8 7 6 6 7 9 10 10 11 12 10 9 8 7 6 7 9 10 8 7 6 6 6 6 6 7 8 8 8 7 7 7 7 6 6 5 5 5 5 5 5 5 5 5 6
9 8 8 8 8 8 8 8 8 7 7 7 7 8 9 9 8 8 8 8 7 7 5 5 5 7 10 12 13 13 14 13 12 11 9 9 9 7 6 6 7 8 9 8 7 6 7 9 10 10 10 10 10 10 9 8 9 10 10 9 8 7 7 7 7 6 7 7 8 8 8 8 8 8 7 7 6 5 5 5 5 4 4 3 3 3
9 9 8 8 8 8 7 8 8 8 8 8 8 8 9 9 8 8 8 8 8 7 6 5 5 7 10 11 12 13 13 13 13 13 13 12 11 9 7 7 6 7 9 10 10 9 8 9 10 11 11 10 9 9 8 8 9 9 10 10 10 10 9 7 6 6 7 7 7 8 9 9 8 8 8 7 6 5 6 6 6 6 5 3 3 2
9 8 8 7 7 7 8 8 8 8 8 8 8 9 9 8 8 8 8 8 8 8 7 6 5 7 9 10 10 11 11 13 14 14 14 13 12 11 9 8 7 7 9 10 11 10 9 10 9 9 8 8 9 10 11 10 9 9 9 10 10 9 7 5 4 5 6 7 7 7 7 8 7 7 7 6 6 5 6 7 8 8 6 4 3 3
8 8 7 7 7 7 8 8 8 8 8 9 9 9 8 9 9 9 8 7 7 7 7 6 5 7 10 10 10 9 9 11 13 14 14 15 14 12 11 10 9 9 9 10 11 11 10 10 9 7 6 7 8 9 10 10 10 9 8 8 8 8 7 6 5 6 6 6 6 6 7 7 7 7 6 6 5 5 5 5 5 5 5 5 4 4
7 8 8 8 8 8 9 9 8 8 8 9 9 9 9 9 9 9 8 7 7 8 7 6 5 6 9 8 8 7 7 8 10 11 12 14 15 14 12 11 10 10 11 10 10 10 10 10 9 7 6 7 9 9 10 10 10 9 8 8 8 8 8 6 6 7 7 7 7 6 6 6 6 7 7 6 5 5 5 5 5 5 4 4 4 4
8 8 9 8 8 9 10 9 9 8 8 9 9 9 9 9 8 8 9 8 8 8 8 7 7 7 8 7 6 6 6 7 8 8 8 10 11 11 11 11 11 11 11 11 11 11 10 9 9 8 8 9 9 9 8 9 9 9 9 9 9 9 8 7 6 6 7 7 7 6 6 6 6 7 7 6 5 5 4 4 4 4 4 4 4 4
9 9 9 9 9 9 9 9 9 9 9 9 9 9 9 9 8 8 9 9 8 7 7 8 9 9 9 8 7 6 7 7 7 7 7 7 8 9 9 10 12 13 12 13 13 13 12 10 9 8 8 9 9 8 8 8 8 9 9 8 9 8 8 6 5 5 6 7 6 6 5 5 6 7 8 6 5 4 4 4 4 3 3 3 3 4
9 9 9 9 9 9 9 9 9 9 9 9 9 9 9 9 10 10 8 9 8 8 8 8 9 10 10 9 8 8 8 8 7 7 6 6 6 7 8 9 10 12 14 15 16 16 15 14 12 10 8 8 8 8 8 7 7 7 7 7 8 8 8 6 5 4 5 5 5 4 4 5 6 7 7 6 5 4 3 3 3 3 3 2 3 3
8 8 9 9 9 9 9 9 9 9 9 9 9 8 8 10 11 11 8 8 8 7 8 8 9 9 9 9 8 8 9 8 7 6 6 6 5 5 6 7 9 10 12 13 14 15 15 16 16 15 12 9 8 9 9 8 7 7 6 6 7 7 7 6 5 5 5 5 5 5 4 4 4 5 6 6 5 5 4 3 3 3 3 2 2 2
8 8 8 8 9 9 9 9 9 9 9 9 9 8 8 8 9 9 8 8 8 8 8 8 8 9 9 8 8 8 8 7 7 7 6 5 5 4 4 5 7 9 9 9 10 11 12 12 14 16 17 15 12 9 8 8 8 7 7 6 6 6 7 6 5 5 5 6 6 6 5 4 3 3 4 5 6 5 4 3 2 2 2 2 2 2
8 8 8 8 8 8 8 8 9 9 9 9 9 8 8 8 8 8 8 8 8 8 8 8 8 8 9 9 8 8 8 8 8 8 7 6 5 4 3 3 4 6 7 7 7 7 6 7 8 10 15 18 16 12 6 6 7 7 7 6 5 5 5 5 5 5 6 6 5 5 5 4 3 3 3 4 5 5 4 3 2 1 2 2 2 3
Wind_Direction
265 269 273 272 273 276 278 279 282 286 290 292 292 293 294 319 335 329 317 310 302 295 291 295 306 302 261 226 215 208 203 200 200 201 204 206 208 209 209 208 207 206 206 206 206 206 205 205 204 202 200 198 195 194 193 195 197 199 201 203 202 199 200 203 206 206 202 189 178 169 165 166 167 169 171 171 173 176 179 178 170 160 151 146 144 143
263 266 267 265 265 267 273 275 277 280 287 292 295 297 302 313 328 333 327 318 308 299 290 285 286 287 278 246 224 213 208 203 202 204 207 210 211 212 211 210 209 207 206 205 205 205 204 204 203 203 201 199 196 194 192 192 193 194 195 196 196 195 197 202 206 208 206 194 181 171 165 167 171 175 178 178 178 177 176 173 164 154 147 145 144 144
267 266 264 262 261 262 267 274 277 280 284 291 295 296 296 299 308 322 328 323 315 306 294 279 268 262 260 255 230 217 212 207 205 206 210 213 214 215 214 212 210 208 206 205 205 204 204 203 203 202 202 200 197 195 192 191 190 189 189 189 189 191 196 201 206 208 206 195 183 172 166 170 176 183 185 183 179 175 171 167 159 151 146 144 143 144
268 265 263 263 262 262 263 271 278 283 287 292 294 293 289 282 278 284 301 311 313 309 302 284 264 250 247 248 236 224 215 211 209 209 213 216 217 218 217 215 213 211 208 206 205 204 203 203 202 202 202 201 199 196 194 191 189 188 187 187 187 190 196 202 207 209 207 197 185 174 169 175 182 187 188 182 175 169 166 164 157 150 145 143 142 143
264 262 261 262 263 264 266 273 281 288 295 296 294 291 281 269 259 256 267 288 302 307 308 297 273 249 238 238 235 229 221 217 215 215 216 219 221 221 220 219 216 214 211 209 207 205 204 203 203 203 203 202 200 198 196 194 193 193 194 195 196 197 201 206 210 212 211 204 192 182 177 181 186 188 186 177 168 162 159 159 154 148 143 141 141 141
263 259 258 259 261 266 277 284 293 303 309 304 297 287 274 262 253 246 246 266 287 301 308 303 282 257 238 230 228 228 226 223 221 221 222 223 224 225 224 222 220 217 214 212 209 207 205 204 203 204 204 203 202 200 198 197 199 202 208 210 209 207 207 209 212 215 216 214 207 197 189 188 186 183 179 169 160 155 153 153 149 145 141 140 140 140
267 260 256 257 261 268 279 284 293 303 307 302 294 282 267 260 252 241 228 227 247 277 294 289 273 259 244 227 219 219 224 227 227 226 226 226 226 226 226 224 223 220 217 214 212 209 207 205 204 204 205 206 205 202 198 197 200 205 212 214 213 211 209 210 212 214 216 217 214 207 198 188 180 174 168 160 153 149 148 148 145 142 140 139 139 139
274 265 257 256 260 267 271 271 273 277 277 276 272 267 257 254 245 237 225 212 210 222 257 267 262 256 247 230 214 209 217 226 229 229 228 227 227 226 226 225 224 222 220 217 214 211 208 206 205 205 206 207 206 203 196 194 198 203 209 211 212 210 208 208 209 211 213 213 211 204 193 178 169 162 157 151 148 146 145 145 143 141 140 140 139 139
279 272 262 256 255 257 262 260 249 231 232 246 249 246 239 234 232 230 229 220 207 203 215 251 259 257 248 235 219 210 213 222 227 227 226 225 224 224 224 224 224 222 221 218 215 212 209 207 205 205 205 206 205 201 193 191 194 199 204 207 208 208 207 207 206 207 208 206 200 188 175 165 158 153 149 146 144 143 143 143 142 141 140 139 139 137
276 276 270 259 251 249 252 255 245 226 216 229 234 233 225 215 210 215 236 238 222 201 198 232 253 260 254 237 219 207 206 220 225 225 222 217 217 218 219 220 221 221 219 218 215 213 209 206 204 203 202 201 199 195 188 187 190 194 199 202 204 206 206 206 205 203 201 195 182 169 161 157 153 150 146 143 142 141 142 142 141 140 139 138 136 135
269 272 271 264 257 250 247 250 246 235 222 227 234 239 234 211 199 206 237 250 250 233 210 220 240 252 251 233 209 181 169 197 213 218 217 210 209 210 211 212 214 216 216 216 214 212 208 204 201 198 195 191 188 185 182 182 185 189 193 196 200 202 204 204 202 199 192 178 165 156 154 154 152 149 144 142 140 140 139 139 138 137 135 134 133 132
261 264 264 262 260 256 254 254 253 244 228 225 229 236 245 232 200 199 230 251 261 263 254 241 240 244 243 222 192 161 149 158 165 178 195 199 201 203 206 208 210 211 212 213 212 209 205 199 194 188 184 180 177 175 174 176 179 183 187 191 195 197 199 199 196 189 176 162 153 150 151 152 150 147 143 140 138 137 135 134 133 132 131 130 129 129
288 282 275 264 256 252 252 253 258 257 240 222 219 222 228 220 189 186 219 247 258 263 266 267 265 260 253 225 188 161 152 147 134 119 110 167 188 195 198 202 205 205 205 207 208 205 200 190 183 176 171 168 166 165 165 168 171 175 180 184 187 189 189 187 181 171 158 149 146 146 148 148 146 142 138 135 133 132 130 129 128 128 127 126 126 126
338 328 317 301 285 277 283 275 272 268 259 248 261 275 268 235 181 177 202 240 254 260 263 266 273 280 286 264 208 169 153 143 126 103 77 61 177 197 191 193 196 197 194 196 197 193 183 177 173 167 162 160 159 158 158 161 163 166 169 172 174 174 172 167 160 151 145 141 141 142 143 141 138 135 132 130 128 127 126 126 125 125 125 124 124 124
351 345 341 341 347 357 1 347 339 335 340 333 325 320 313 310 228 181 186 220 239 252 261 266 272 279 286 283 250 188 160 146 130 113 95 52 1 315 189 184 185 187 187 186 181 172 164 164 162 159 156 155 154 153 151 154 154 154 155 156 156 154 152 148 144 140 137 136 136 136 136 134 132 129 127 125 124 123 123 123 123 123 123 122 122 122
357 355 353 354 360 5 5 356 351 349 348 338 326 318 317 323 317 193 173 188 195 207 230 252 262 270 278 283 264 210 171 148 133 121 111 78 6 337 290 167 170 173 177 172 165 158 155 154 151 150 149 147 146 144 142 145 144 143 142 141 141 140 138 136 135 133 132 132 132 132 131 129 127 125 124 122 121 120 120 120 120 120 120 120 120 120
4 3 358 352 350 348 345 340 336 330 322 316 313 315 323 328 330 330 184 177 179 190 209 220 232 247 265 279 267 222 183 152 134 122 111 89 17 338 351 149 154 156 158 157 154 152 149 147 145 143 143 141 139 138 137 137 136 135 134 133 132 131 130 129 129 129 129 128 128 128 127 126 124 123 122 120 119 118 117 117 118 118 117 117 117 116
8 7 359 351 345 339 333 329 327 324 319 317 317 318 321 321 322 321 311 218 194 195 203 207 213 223 240 232 215 202 196 158 134 120 110 96 44 346 359 110 134 139 138 141 144 145 144 143 142 139 137 134 133 133 133 133 132 131 130 129 128 127 126 126 125 125 125 125 125 124 124 123 122 121 120 119 117 116 116 115 115 114 114 113 113 112
9 8 0 352 340 329 322 325 328 330 330 328 325 324 323 320 318 317 310 267 218 204 203 206 210 217 234 227 195 185 202 162 132 119 111 104 77 7 11 83 116 124 122 123 128 134 135 134 133 133 132 130 129 129 129 129 128 128 127 126 125 125 123 123 123 123 122 122 122 121 120 120 119 118 117 116 115 114 113 112 111 111 111 110 110 110
6 6 360 348 335 325 322 330 334 335 333 327 323 320 320 317 314 309 301 281 246 218 204 201 200 202 207 218 187 188 204 170 131 114 109 105 85 24 12 84 114 118 112 110 114 122 126 126 127 128 128 126 126 125 126 126 125 125 124 123 123 122 122 121 121 121 121 120 119 119 117 116 115 114 113 112 111 110 110 109 109 109 109 108 108 108
3 1 353 344 337 332 331 332 333 332 331 326 321 316 315 312 306 299 292 283 259 231 213 204 195 183 161 159 178 198 208 178 138 115 109 98 74 32 9 68 106 112 108 104 105 111 117 122 126 128 127 124 123 122 122 122 122 122 121 121 120 120 120 120 120 120 120 119 119 118 117 115 114 112 111 110 109 108 108 108 108 108 108 108 108 108
358 354 346 343 340 337 331 325 326 328 330 328 324 318 317 312 306 303 305 303 291 263 229 209 186 152 123 119 173 246 236 198 145 115 106 93 70 35 6 45 96 107 107 103 101 102 106 113 121 126 126 122 121 120 119 118 118 118 118 117 117 117 118 118 119 119 119 119 118 117 116 115 114 113 111 110 109 108 108 108 108 108 108 108 108 108
355 350 345 345 342 337 329 324 324 327 330 327 323 316 308 299 291 290 295 301 304 302 291 258 116 98 85 64 11 316 276 231 162 116 97 92 80 47 6 31 89 104 105 105 103 100 98 101 109 117 120 118 117 116 115 114 114 113 113 113 114 114 115 115 116 116 116 116 116 115 115 114 113 112 112 111 110 109 109 108 108 108 108 108 108 107
356 352 349 347 346 342 336 334 336 338 337 332 324 314 300 286 276 270 270 278 286 291 295 315 78 81 68 57 30 343 296 258 198 132 96 93 87 70 18 54 94 101 102 104 103 100 95 93 96 104 111 112 112 112 111 110 109 109 109 109 110 110 111 111 112 112 113 113 113 113 113 112 112 112 111 111 111 110 110 109 109 108 108 107 106 105
0 358 357 356 356 356 354 353 357 0 1 354 343 329 314 296 280 267 259 259 263 266 263 214 143 117 87 69 40 358 313 284 218 149 113 104 96 83 46 71 96 101 101 101 101 99 97 95 94 96 100 104 106 106 107 106 106 106 106 106 107 107 107 108 108 109 110 110 111 111 111 111 111 111 111 111 111 111 110 110 109 108 107 106 105 105
8 6 5 4 4 2 1 360 4 9 14 14 7 354 337 318 301 283 266 262 259 253 237 202 163 137 112 85 51 9 327 293 237 165 131 121 113 103 79 81 93 99 100 99 99 100 101 100 99 97 95 98 100 102 103 103 104 104 104 105 105 105 105 106 106 107 108 109 109 110 111 111 111 111 111 110 110 110 110 109 108 107 105 105 104 105
10 9 8 7 6 5 3 1 4 9 16 19 18 14 2 350 350 356 355 341 324 298 240 201 162 139 126 105 76 22 336 305 255 169 146 129 121 114 106 99 97 97 98 96 96 98 101 102 102 100 96 95 96 97 99 100 101 102 103 103 103 104 104 105 106 106 107 108 109 110 110 110 110 110 110 109 109 108 108 106 104 103 101 100 102 104
8 8 8 8 7 5 4 2 3 7 14 19 21 21 18 16 18 17 6 348 332 313 267 214 174 156 149 130 103 49 355 347 342 306 173 132 123 121 123 117 105 100 98 95 90 88 90 95 97 98 96 95 94 94 95 96 98 99 100 101 102 103 104 105 106 106 107 108 109 109 109 109 109 108 107 107 106 105 104 102 100 97 95 93 93 97
5 5 5 6 5 4 3 0 1 4 10 17 22 24 25 26 24 14 350 337 323 306 277 234 193 169 151 129 102 61 4 5 339 314 231 140 128 127 134 129 116 106 103 99 88 74 67 72 81 89 93 95 95 93 93 93 94 96 97 98 100 101 103 104 105 106 107 107 108 108 108 107 106 105 105 104 104 102 101 97 95 92 87 85 83 84
1 1 1 2 2 1 360 358 358 0 5 14 19 24 26 26 21 7 343 338 325 307 288 250 203 170 148 127 111 81 346 345 336 320 278 167 143 135 142 133 124 116 112 107 96 80 62 48 51 69 88 94 95 95 95 93 93 93 95 96 98 100 102 103 104 105 105 105 106 106 105 105 104 104 104 103 102 101 99 96 93 89 83 82 80 78
358 359 358 357 357 356 356 356 355 357 1 9 14 19 21 20 14 4 350 348 336 316 302 278 224 173 158 142 136 138 266 304 342 341 306 197 152 139 145 136 130 125 120 116 111 104 91 59 43 54 79 88 92 94 97 97 97 96 97 97 98 100 101 102 102 103 103 104 104 105 105 105 105 105 106 105 105 104 103 101 98 94 91 90 89 88
357 358 357 355 354 354 355 355 355 357 0 5 9 12 14 14 11 5 357 352 344 331 317 312 307 187 152 135 133 137 178 271 334 343 320 233 154 139 143 136 132 129 122 114 114 115 114 104 83 69 73 77 81 85 89 93 96 99 100 100 100 101 102 101 101 101 102 103 104 106 107 108 109 110 110 111 112 112 112 111 109 107 105 105 105 104
357 357 356 354 354 355 356 357 357 360 3 5 6 8 10 10 8 5 0 356 351 345 338 339 348 7 35 69 92 110 139 231 318 333 328 283 162 142 137 135 132 127 116 96 93 100 109 114 111 99 83 72 67 68 73 81 89 96 101 102 102 102 102 101 100 100 101 102 104 105 107 109 111 113 115 116 117 118 119 120 120 119 118 117 116 115
357 358 358 357 357 357 358 359 1 3 5 6 5 5 6 6 5 3 1 358 355 353 353 355 0 11 30 56 77 88 93 270 308 321 331 300 176 145 133 134 132 128 120 106 96 95 99 108 112 111 101 81 64 56 58 69 80 88 94 97 100 101 100 99 99 100 100 101 102 103 105 109 111 113 116 118 120 122 123 123 124 124 123 124 124 123
358 359 0 359 359 359 360 1 2 4 5 5 4 3 3 3 2 2 0 357 355 355 358 1 5 11 19 33 55 65 51 318 311 316 320 297 208 148 130 134 133 131 128 125 120 115 109 110 115 117 115 102 83 64 52 61 72 80 82 86 89 92 94 96 97 98 97 96 95 96 98 102 106 111 116 119 121 122 123 123 124 124 124 124 125 125
0 2 2 2 0 360 360 1 2 3 3 2 1 0 0 0 0 359 357 355 353 354 357 3 12 21 27 35 43 46 12 307 305 307 305 285 238 159 128 131 132 132 130 130 128 125 121 118 117 117 117 114 105 90 70 68 73 77 79 79 81 83 87 91 96 98 98 97 95 93 93 97 101 107 114 118 119 120 120 120 120 121 121 122 122 123
4 4 4 3 1 360 359 0 1 1 0 358 358 358 358 358 358 357 354 353 351 351 354 2 14 28 37 41 42 33 337 303 304 309 315 300 277 141 117 122 126 128 131 132 131 129 125 123 121 119 116 116 116 116 113 101 91 85 83 84 84 84 84 87 93 98 100 100 99 97 94 96 99 103 107 113 113 114 114 115 115 116 117 117 117 118
7 6 4 3 1 360 359 359 360 359 357 355 354 355 356 357 358 356 354 352 349 348 349 357 12 28 35 38 35 28 15 1 352 351 357 1 19 71 103 109 110 113 120 129 132 133 131 130 128 127 122 116 115 119 126 121 112 103 98 93 90 87 86 87 90 95 99 101 99 96 91 89 89 92 96 100 100 100 104 104 107 108 110 110 111 112
8 6 4 3 2 360 359 358 357 355 353 352 353 355 356 358 359 359 356 353 350 347 347 355 14 31 37 35 32 28 25 22 21 23 28 31 40 61 92 101 101 99 100 114 124 130 132 132 132 132 129 124 121 119 120 118 117 116 114 102 92 85 85 87 90 94 99 102 101 98 91 88 87 89 90 91 93 95 96 95 96 99 103 105 106 107
6 5 3 2 1 359 359 357 354 352 351 351 355 358 1 2 2 0 359 356 352 347 342 352 19 41 45 40 34 29 26 25 27 30 37 41 45 57 76 94 101 104 102 103 108 115 119 121 123 125 127 127 128 127 123 122 125 127 124 113 102 92 90 90 90 93 97 102 104 104 102 96 93 91 90 88 89 92 95 93 91 89 91 97 103 106
4 3 1 359 358 357 357 354 353 352 354 355 0 5 7 5 3 1 359 357 355 352 345 355 23 44 48 43 37 31 27 26 28 32 39 43 49 57 68 83 96 103 104 99 95 95 102 110 114 116 118 120 121 121 121 126 128 127 120 113 109 107 101 96 95 97 99 102 107 109 110 105 100 95 91 87 83 82 86 89 87 80 69 71 90 110
1 0 358 356 355 354 354 354 356 358 1 4 9 12 11 7 4 1 359 358 356 353 350 360 25 44 50 44 38 32 28 27 29 33 38 41 47 54 64 74 87 98 104 99 94 91 94 103 109 114 118 120 120 118 117 117 116 112 107 109 109 107 98 93 95 101 104 106 108 109 110 106 103 99 96 91 85 80 77 80 82 80 73 61 63 85
357 355 353 352 352 353 354 357 1 4 7 10 13 15 13 9 5 3 2 1 358 355 353 2 26 47 55 48 40 33 29 29 32 35 39 41 46 52 62 68 78 91 101 101 98 94 90 90 93 101 110 117 118 118 117 113 107 103 104 113 116 114 107 104 102 101 100 102 103 103 104 104 103 100 95 90 84 77 71 72 73 74 75 74 69 64
352 351 350 352 354 357 1 5 8 9 11 13 14 13 11 9 7 6 6 4 2 1 359 2 24 48 56 52 45 36 30 30 32 36 40 43 46 51 59 64 69 76 88 97 102 102 96 88 86 88 96 102 106 108 110 110 109 107 106 108 108 109 113 120 120 113 104 102 100 100 102 104 102 98 90 83 76 71 69 69 67 66 66 70 74 75
352 352 354 356 359 3 8 9 9 11 13 15 15 13 10 9 10 10 10 7 7 8 8 7 24 47 54 50 45 40 34 32 33 35 38 42 46 51 58 63 67 70 73 81 90 98 100 97 94 91 89 91 94 97 103 106 107 105 101 95 92 92 96 105 112 113 112 108 105 103 104 105 102 97 90 83 77 74 73 76 77 75 71 71 76 83
357 357 357 359 2 5 8 8 9 12 15 17 16 13 10 10 12 14 13 11 12 14 16 21 35 49 55 49 45 41 39 35 34 35 37 40 43 47 54 60 66 70 72 72 74 78 85 93 98 99 95 90 86 85 90 98 102 102 100 99 99 99 97 98 101 106 110 110 110 109 108 104 100 97 96 93 87 79 71 75 79 83 83 83 84 88
1 360 359 360 2 4 5 7 9 12 16 17 16 14 11 11 13 16 16 14 15 18 23 31 42 50 54 50 46 44 42 39 36 35 37 41 45 50 56 62 66 70 74 74 73 71 69 72 79 89 98 97 92 85 80 84 92 100 106 108 108 106 102 100 99 100 103 106 109 111 110 103 100 100 102 101 95 84 69 64 64 68 76 86 91 92
3 2 0 1 2 3 5 6 9 12 16 16 15 14 12 13 15 18 19 16 17 20 26 35 43 49 52 49 46 45 46 43 39 35 35 39 45 53 60 67 71 73 74 76 75 73 69 63 60 62 74 88 95 96 91 85 86 91 99 103 104 103 100 97 93 89 89 92 95 98 102 104 108 111 112 108 100 89 76 61 48 38 35 58 83 94
6 4 2 3 4 5 6 7 9 12 16 16 15 14 12 14 17 20 21 19 20 23 29 35 42 47 50 47 45 44 45 45 41 36 31 31 36 48 63 74 80 82 81 80 78 75 71 64 58 53 51 62 78 91 94 90 88 87 88 92 96 99 99 95 90 84 82 81 79 77 77 86 97 106 112 110 107 102 92 74 51 30 14 20 50 80
9 8 5 6 7 8 6 8 10 13 15 16 16 15 13 14 17 19 21 22 25 28 30 35 40 45 48 45 44 42 43 43 41 36 28 22 22 33 54 76 89 92 91 87 84 81 76 69 60 52 46 47 54 70 90 92 92 90 86 85 89 94 97 94 90 86 84 83 81 78 76 74 74 81 96 107 111 109 103 89 66 37 9 11 34 57
11 11 9 9 9 9 7 9 12 14 15 17 17 17 16 17 18 19 21 24 27 29 30 33 38 43 46 44 43 42 42 43 42 37 28 19 15 19 30 58 88 99 101 98 94 90 86 80 68 54 43 38 39 45 72 86 94 96 91 87 86 89 92 92 89 86 84 83 82 80 81 79 75 76 93 109 113 113 111 105 92 52 1 12 35 48